Regional Weather Roundup
Issued by NWS Charleston, WV

Home | Current Version | Previous Version | Graphics & Text | Print | Product List | Glossary On
Versions: 1 2 3 4 5 6 7 8 9 10 11 12 13 14 15 16 17 18 19 20 21 22 23 24 25 26 27 28
000
ASUS41 KRLX 300110
RWRRLX
West Virginia Regional Weather Roundup
National Weather Service Charleston WV
900 PM EDT WED OCT 29 2014

Note: "fair" indicates few or no clouds below 12,000 feet with no
significant weather and/or obstructions to visibility.

WVZ003-300200-
Northern Panhandle of West Virginia

CITY           SKY/WX    TMP DP  RH WIND       PRES   REMARKS
WHEELING       PTCLDY    47  34  60 NW10      30.04R
$$

WVZ009-300200-
Northwest West Virginia

CITY           SKY/WX    TMP DP  RH WIND       PRES   REMARKS
PARKERSBURG    CLEAR     50  35  56 NW14G21   30.09R
$$

WVZ006-300200-
Western West Virginia

CITY           SKY/WX    TMP DP  RH WIND       PRES   REMARKS
HUNTINGTON     CLEAR     53  36  52 W3        30.05R
$$

WVZ015-300200-
West Central West Virginia

CITY           SKY/WX    TMP DP  RH WIND       PRES   REMARKS
CHARLESTON     PTCLDY    51  38  60 SW5       30.04S
$$

WVZ022-031-300200-
North Central West Virginia

CITY           SKY/WX    TMP DP  RH WIND       PRES   REMARKS
CLARKSBURG     MOCLDY    50  40  68 CALM      30.01S
MORGANTOWN     MOCLDY    55  36  48 CALM      30.02S
$$

WVZ025-035-042-045-300200-
Southern West Virginia

CITY           SKY/WX    TMP DP  RH WIND       PRES   REMARKS
BECKLEY        CLEAR     47  36  65 CALM      30.05S
LOGAN            N/A     52  37  58 CALM      30.05S
BLUEFIELD      CLEAR     48  35  60 W3        30.07S
LEWISBURG      CLEAR     48  36  62 CALM      30.04F
$$

WVZ047-300200-
Northern Mountains of West Virginia

CITY           SKY/WX    TMP DP  RH WIND       PRES   REMARKS
ELKINS         CLOUDY    50  40  68 CALM      30.03S
$$

WVZ052-300200-
Eastern Panhandle of West Virginia

CITY           SKY/WX    TMP DP  RH WIND       PRES   REMARKS
MARTINSBURG    CLEAR     50  39  66 SW5       29.99R
PETERSBURG     MOCLDY    49  38  65 CALM      30.02S
$$



USA.gov is the U.S. government's official web portal to all federal, state and local government web resources and services.